owner,sensor,date,latitude,longitude,vertical_datum,wind_speed,wind_to_direction,wind_speed_of_gust,qcFlag 
TABS,ioos:station:wmo:42043:1,2009-03-01T00:00:00Z,28.9818,-94.9186,4.0,9.31444577,343.9192402,12.31,'11111222,11111222,11111222' 
TABS,ioos:station:wmo:42043:1,2009-03-01T00:30:00Z,28.9818,-94.9186,4.0,10.92595534,341.1503061,13.94,'11111222,11111222,11111222' 
TABS,ioos:station:wmo:42043:1,2009-03-01T01:00:00Z,28.9818,-94.9186,4.0,11.8009703,342.7471777,15.39,'11111222,11111222,11111222' 
TABS,ioos:station:wmo:42043:1,2009-03-01T01:30:00Z,28.9818,-94.9186,4.0,11.65326135,341.1761812,14.87,'11111222,11111222,11111222' 
TABS,ioos:station:wmo:42043:1,2009-03-01T02:00:00Z,28.9818,-94.9186,4.0,12.02629203,341.278634,15.78,'11111222,11111222,11111222' 
TABS,ioos:station:wmo:42043:1,2009-03-01T02:30:00Z,28.9818,-94.9186,4.0,12.44187285,355.8977774,16.95,'11111222,11111222,11111222' 
TABS,ioos:station:wmo:42043:1,2009-03-01T03:00:00Z,28.9818,-94.9186,4.0,12.32056005,357.627403,15.85,'11111222,11111222,11111222' 
TABS,ioos:station:wmo:42043:1,2009-03-01T03:30:00Z,28.9818,-94.9186,4.0,11.62975924,352.48981,15.18,'11111222,11111222,11111222' 
TABS,ioos:station:wmo:42043:1,2009-03-01T04:00:00Z,28.9818,-94.9186,4.0,11.1883198,347.1932836,14.5,'11111222,11111222,11111222' 
TABS,ioos:station:wmo:42043:1,2009-03-01T04:30:00Z,28.9818,-94.9186,4.0,12.05399934,337.6688299,14.87,'11111222,11111222,11111222' 
TABS,ioos:station:wmo:42043:1,2009-03-01T05:00:00Z,28.9818,-94.9186,4.0,12.34919026,341.0513643,16.04,'11111222,11111222,11111222' 
TABS,ioos:station:wmo:42043:1,2009-03-01T05:30:00Z,28.9818,-94.9186,4.0,11.52358451,336.527051,14.65,'11111222,11111222,11111222' 
TABS,ioos:station:wmo:42043:1,2009-03-01T06:00:00Z,28.9818,-94.9186,4.0,10.74819055,338.4953996,13.98,'11111222,11111222,11111222' 
TABS,ioos:station:wmo:42043:1,2009-03-01T06:30:00Z,28.9818,-94.9186,4.0,10.28460986,345.1258249,14.49,'11111222,11111222,11111222' 
TABS,ioos:station:wmo:42043:1,2009-03-01T07:00:00Z,28.9818,-94.9186,4.0,10.01695063,335.0209651,13.5,'11111222,11111222,11111222' 
TABS,ioos:station:wmo:42043:1,2009-03-01T07:30:00Z,28.9818,-94.9186,4.0,10.67588872,334.1788579,13.76,'11111222,11111222,11111222' 
TABS,ioos:station:wmo:42043:1,2009-03-01T08:00:00Z,28.9818,-94.9186,4.0,10.75749506,338.5149237,13.46,'11111222,11111222,11111222' 
TABS,ioos:station:wmo:42043:1,2009-03-01T08:30:00Z,28.9818,-94.9186,4.0,11.34126095,326.8002138,15.26,'11111222,11111222,11111222' 
TABS,ioos:station:wmo:42043:1,2009-03-01T09:00:00Z,28.9818,-94.9186,4.0,11.30577286,330.1921192,14.29,'11111222,11111222,11111222' 
TABS,ioos:station:wmo:42043:1,2009-03-01T09:30:00Z,28.9818,-94.9186,4.0,10.22433372,331.5548743,14.04,'11111222,11111222,11111222' 
TABS,ioos:station:wmo:42043:1,2009-03-01T10:00:00Z,28.9818,-94.9186,4.0,11.36395178,333.0514823,14.16,'11111222,11111222,11111222' 
TABS,ioos:station:wmo:42043:1,2009-03-01T10:30:00Z,28.9818,-94.9186,4.0,11.27472394,331.0933293,15.01,'11111222,11111222,11111222' 
TABS,ioos:station:wmo:42043:1,2009-03-01T11:00:00Z,28.9818,-94.9186,4.0,10.58120976,331.0609595,14.5,'11111222,11111222,11111222' 
TABS,ioos:station:wmo:42043:1,2009-03-01T11:30:00Z,28.9818,-94.9186,4.0,10.33936652,335.7897878,13.79,'11111222,11111222,11111222' 
TABS,ioos:station:wmo:42043:1,2009-03-01T12:00:00Z,28.9818,-94.9186,4.0,10.70390583,327.8242629,13.93,'11111222,11111222,11111222' 
TABS,ioos:station:wmo:42043:1,2009-03-01T12:30:00Z,28.9818,-94.9186,4.0,11.06377874,338.0253329,14.85,'11111222,11111222,11111222' 
TABS,ioos:station:wmo:42043:1,2009-03-01T13:00:00Z,28.9818,-94.9186,4.0,10.42682118,338.3310832,13.86,'11111222,11111222,11111222' 
TABS,ioos:station:wmo:42043:1,2009-03-01T13:30:00Z,28.9818,-94.9186,4.0,10.19475355,337.0816779,13.2,'11111222,11111222,11111222' 
TABS,ioos:station:wmo:42043:1,2009-03-01T14:00:00Z,28.9818,-94.9186,4.0,10.33418115,342.9500917,14.75,'11111222,11111222,11111222' 
TABS,ioos:station:wmo:42043:1,2009-03-01T14:30:00Z,28.9818,-94.9186,4.0,10.12997532,343.2464092,13.0,'11111222,11111222,11111222' 
TABS,ioos:station:wmo:42043:1,2009-03-01T15:00:00Z,28.9818,-94.9186,4.0,10.23269271,347.2402264,12.97,'11111222,11111222,11111222' 
TABS,ioos:station:wmo:42043:1,2009-03-01T15:30:00Z,28.9818,-94.9186,4.0,9.835024148,343.0941245,13.21,'11111222,11111222,11111222' 
TABS,ioos:station:wmo:42043:1,2009-03-01T16:00:00Z,28.9818,-94.9186,4.0,10.38187363,345.0399674,13.86,'11111222,11111222,11111222' 
TABS,ioos:station:wmo:42043:1,2009-03-01T16:30:00Z,28.9818,-94.9186,4.0,8.453981311,339.7214238,11.88,'11111222,11111222,11111222' 
TABS,ioos:station:wmo:42043:1,2009-03-01T17:00:00Z,28.9818,-94.9186,4.0,8.326998259,337.6234494,11.47,'11111222,11111222,11111222' 
TABS,ioos:station:wmo:42043:1,2009-03-01T17:30:00Z,28.9818,-94.9186,4.0,7.807496398,336.6856215,10.35,'11111222,11111222,11111222' 
TABS,ioos:station:wmo:42043:1,2009-03-01T18:00:00Z,28.9818,-94.9186,4.0,6.848080023,339.3948301,9.54,'11111222,11111222,11111222' 
TABS,ioos:station:wmo:42043:1,2009-03-01T18:30:00Z,28.9818,-94.9186,4.0,7.849178301,346.7425817,9.86,'11111222,11111222,11111222' 
TABS,ioos:station:wmo:42043:1,2009-03-01T19:00:00Z,28.9818,-94.9186,4.0,6.831295631,353.6966612,9.05,'11111222,11111222,11111222' 
TABS,ioos:station:wmo:42043:1,2009-03-01T19:30:00Z,28.9818,-94.9186,4.0,7.365195177,352.9809285,9.8,'11111222,11111222,11111222' 
TABS,ioos:station:wmo:42043:1,2009-03-01T20:00:00Z,28.9818,-94.9186,4.0,7.093891739,349.2759673,8.91,'11111222,11111222,11111222' 
TABS,ioos:station:wmo:42043:1,2009-03-01T20:30:00Z,28.9818,-94.9186,4.0,6.18728535,352.1971063,8.78,'11111222,11111222,11111222' 
TABS,ioos:station:wmo:42043:1,2009-03-01T21:00:00Z,28.9818,-94.9186,4.0,5.064227483,346.2928606,7.39,'11111222,11111222,11111222' 
TABS,ioos:station:wmo:42043:1,2009-03-01T21:30:00Z,28.9818,-94.9186,4.0,5.570718087,355.0567904,7.58,'11111222,11111222,11111222' 
TABS,ioos:station:wmo:42043:1,2009-03-01T22:00:00Z,28.9818,-94.9186,4.0,5.188679986,356.6852115,7.28,'11111222,11111222,11111222' 
TABS,ioos:station:wmo:42043:1,2009-03-01T22:30:00Z,28.9818,-94.9186,4.0,4.684122116,351.2815469,6.41,'11111222,11111222,11111222' 
TABS,ioos:station:wmo:42043:1,2009-03-01T23:00:00Z,28.9818,-94.9186,4.0,5.040605122,346.928525,6.55,'11111222,11111222,11111222' 
TABS,ioos:station:wmo:42043:1,2009-03-01T23:30:00Z,28.9818,-94.9186,4.0,5.457655174,329.8643317,7.19,'11111222,11111222,11111222' 
TABS,ioos:station:wmo:42043:1,2009-03-02T00:00:00Z,28.9818,-94.9186,4.0,6.433078579,329.448517,7.9,'11111222,11111222,11111222' 
TABS,ioos:station:wmo:42043:1,2009-03-02T00:30:00Z,28.9818,-94.9186,4.0,7.204783133,329.3770657,8.72,'11111222,11111222,11111222' 
TABS,ioos:station:wmo:42043:1,2009-03-02T01:00:00Z,28.9818,-94.9186,4.0,6.661231117,329.5081495,8.32,'11111222,11111222,11111222' 
TABS,ioos:station:wmo:42043:1,2009-03-02T01:30:00Z,28.9818,-94.9186,4.0,6.525526799,329.1113953,7.82,'11111222,11111222,11111222' 
TABS,ioos:station:wmo:42043:1,2009-03-02T02:00:00Z,28.9818,-94.9186,4.0,6.628159624,339.7877847,7.92,'11111222,11111222,11111222' 
TABS,ioos:station:wmo:42043:1,2009-03-02T02:30:00Z,28.9818,-94.9186,4.0,6.859300256,351.2790504,8.21,'11111222,11111222,11111222' 
TABS,ioos:station:wmo:42043:1,2009-03-02T03:00:00Z,28.9818,-94.9186,4.0,8.031519159,344.2504132,10.02,'11111222,11111222,11111222' 
TABS,ioos:station:wmo:42043:1,2009-03-02T03:30:00Z,28.9818,-94.9186,4.0,7.731474633,347.2218313,9.19,'11111222,11111222,11111222' 
TABS,ioos:station:wmo:42043:1,2009-03-02T04:00:00Z,28.9818,-94.9186,4.0,8.30554634,348.541064,9.87,'11111222,11111222,11111222' 
TABS,ioos:station:wmo:42043:1,2009-03-02T04:30:00Z,28.9818,-94.9186,4.0,7.517692465,337.3917028,9.3,'11111222,11111222,11111222' 
TABS,ioos:station:wmo:42043:1,2009-03-02T05:00:00Z,28.9818,-94.9186,4.0,6.661080993,342.7073806,8.4,'11111222,11111222,11111222' 
TABS,ioos:station:wmo:42043:1,2009-03-02T05:30:00Z,28.9818,-94.9186,4.0,6.811057187,346.7593006,8.97,'11111222,11111222,11111222' 
TABS,ioos:station:wmo:42043:1,2009-03-02T06:00:00Z,28.9818,-94.9186,4.0,6.815254948,351.4773578,8.36,'11111222,11111222,11111222' 
TABS,ioos:station:wmo:42043:1,2009-03-02T06:30:00Z,28.9818,-94.9186,4.0,7.33411208,351.8476099,9.0,'11111222,11111222,11111222' 
TABS,ioos:station:wmo:42043:1,2009-03-02T07:00:00Z,28.9818,-94.9186,4.0,7.335407282,355.2296724,9.0,'11111222,11111222,11111222' 
TABS,ioos:station:wmo:42043:1,2009-03-02T07:30:00Z,28.9818,-94.9186,4.0,7.24246505,4.513767444,8.94,'11111222,11111222,11111222' 
TABS,ioos:station:wmo:42043:1,2009-03-02T08:00:00Z,28.9818,-94.9186,4.0,7.601065715,3.09180608,9.4,'11111222,11111222,11111222' 
TABS,ioos:station:wmo:42043:1,2009-03-02T08:30:00Z,28.9818,-94.9186,4.0,7.408272403,12.2349618,9.13,'11111222,11111222,11111222' 
TABS,ioos:station:wmo:42043:1,2009-03-02T09:00:00Z,28.9818,-94.9186,4.0,7.388863241,21.59955576,9.41,'11111222,11111222,11111222' 
TABS,ioos:station:wmo:42043:1,2009-03-02T09:30:00Z,28.9818,-94.9186,4.0,6.294132188,27.94905216,8.52,'11111222,11111222,11111222' 
TABS,ioos:station:wmo:42043:1,2009-03-02T10:00:00Z,28.9818,-94.9186,4.0,6.976087729,18.12302664,9.13,'11111222,11111222,11111222' 
TABS,ioos:station:wmo:42043:1,2009-03-02T10:30:00Z,28.9818,-94.9186,4.0,5.988063126,28.74763661,7.79,'11111222,11111222,11111222' 
TABS,ioos:station:wmo:42043:1,2009-03-02T11:00:00Z,28.9818,-94.9186,4.0,4.942802849,44.58985121,6.41,'11111222,11111222,11111222' 
TABS,ioos:station:wmo:42043:1,2009-03-02T11:30:00Z,28.9818,-94.9186,4.0,5.363552927,39.47700772,7.24,'11111222,11111222,11111222' 
TABS,ioos:station:wmo:42043:1,2009-03-02T12:00:00Z,28.9818,-94.9186,4.0,5.649044167,41.05204011,7.19,'11111222,11111222,11111222' 
TABS,ioos:station:wmo:42043:1,2009-03-02T12:30:00Z,28.9818,-94.9186,4.0,5.701096386,41.80015208,7.6,'11111222,11111222,11111222' 
TABS,ioos:station:wmo:42043:1,2009-03-02T13:00:00Z,28.9818,-94.9186,4.0,6.005938728,43.31302077,7.99,'11111222,11111222,11111222' 
TABS,ioos:station:wmo:42043:1,2009-03-02T13:30:00Z,28.9818,-94.9186,4.0,5.53797797,51.59838467,7.17,'11111222,11111222,11111222' 
TABS,ioos:station:wmo:42043:1,2009-03-02T14:00:00Z,28.9818,-94.9186,4.0,4.53841382,38.73837265,6.14,'11111222,11111222,11111222' 
TABS,ioos:station:wmo:42043:1,2009-03-02T14:30:00Z,28.9818,-94.9186,4.0,4.604345773,34.38005387,6.39,'11111222,11111222,11111222' 
TABS,ioos:station:wmo:42043:1,2009-03-02T15:00:00Z,28.9818,-94.9186,4.0,4.079914215,33.30028296,5.72,'11111222,11111222,11111222' 
TABS,ioos:station:wmo:42043:1,2009-03-02T15:30:00Z,28.9818,-94.9186,4.0,3.480976874,24.79786401,4.89,'11111222,11111222,11111222' 
TABS,ioos:station:wmo:42043:1,2009-03-02T16:00:00Z,28.9818,-94.9186,4.0,3.28732414,27.3442631,5.25,'11111222,11111222,11111222' 
TABS,ioos:station:wmo:42043:1,2009-03-02T16:30:00Z,28.9818,-94.9186,4.0,3.002815346,16.4431307,4.54,'11111222,11111222,11111222' 
TABS,ioos:station:wmo:42043:1,2009-03-02T17:00:00Z,28.9818,-94.9186,4.0,2.781726083,9.936156249,4.33,'11111222,11111222,11111222' 
TABS,ioos:station:wmo:42043:1,2009-03-02T17:30:00Z,28.9818,-94.9186,4.0,2.75632001,7.924091563,3.88,'11111222,11111222,11111222' 
TABS,ioos:station:wmo:42043:1,2009-03-02T18:00:00Z,28.9818,-94.9186,4.0,2.150348809,18.43469526,4.07,'11111222,11111222,11111222' 
TABS,ioos:station:wmo:42043:1,2009-03-02T18:30:00Z,28.9818,-94.9186,4.0,2.169446934,25.38359245,3.36,'11111222,11111222,11111222' 
TABS,ioos:station:wmo:42043:1,2009-03-02T19:00:00Z,28.9818,-94.9186,4.0,1.641462762,46.9746137,2.66,'11111222,11111222,11111222' 
TABS,ioos:station:wmo:42043:1,2009-03-02T19:30:00Z,28.9818,-94.9186,4.0,2.251799281,92.2910256,3.64,'11111222,11111222,11111222' 
TABS,ioos:station:wmo:42043:1,2009-03-02T20:00:00Z,28.9818,-94.9186,4.0,2.052340128,108.1704796,3.03,'11111222,11111222,11111222' 
TABS,ioos:station:wmo:42043:1,2009-03-02T20:30:00Z,28.9818,-94.9186,4.0,3.870116277,90.44456431,5.8,'11111222,11111222,11111222' 
TABS,ioos:station:wmo:42043:1,2009-03-02T21:00:00Z,28.9818,-94.9186,4.0,3.280320106,94.54647411,4.79,'11111222,11111222,11111222' 
TABS,ioos:station:wmo:42043:1,2009-03-02T21:30:00Z,28.9818,-94.9186,4.0,3.47703897,99.43563086,4.99,'11111222,11111222,11111222' 
TABS,ioos:station:wmo:42043:1,2009-03-02T22:00:00Z,28.9818,-94.9186,4.0,2.777084802,104.3869063,4.14,'11111222,11111222,11111222' 
TABS,ioos:station:wmo:42043:1,2009-03-02T22:30:00Z,28.9818,-94.9186,4.0,2.740018248,119.2783704,4.07,'11111222,11111222,11111222' 
TABS,ioos:station:wmo:42043:1,2009-03-02T23:00:00Z,28.9818,-94.9186,4.0,2.961840644,121.3290405,4.14,'11111222,11111222,11111222' 
TABS,ioos:station:wmo:42043:1,2009-03-02T23:30:00Z,28.9818,-94.9186,4.0,2.934910561,134.0339748,4.24,'11111222,11111222,11111222' 
TABS,ioos:station:wmo:42043:1,2009-03-03T00:00:00Z,28.9818,-94.9186,4.0,2.59023165,139.854871,3.75,'11111222,11111222,11111222' 
TABS,ioos:station:wmo:42043:1,2009-03-03T00:30:00Z,28.9818,-94.9186,4.0,3.330540497,135.3652512,4.76,'11111222,11111222,11111222' 
TABS,ioos:station:wmo:42043:1,2009-03-03T01:00:00Z,28.9818,-94.9186,4.0,2.643577122,152.2720179,4.1,'11111222,11111222,11111222' 
TABS,ioos:station:wmo:42043:1,2009-03-03T01:30:00Z,28.9818,-94.9186,4.0,2.762679858,147.1155292,3.87,'11111222,11111222,11111222' 
TABS,ioos:station:wmo:42043:1,2009-03-03T02:00:00Z,28.9818,-94.9186,4.0,3.320542124,161.0196484,4.4,'11111222,11111222,11111222' 
TABS,ioos:station:wmo:42043:1,2009-03-03T02:30:00Z,28.9818,-94.9186,4.0,3.983892569,157.1038238,5.24,'11111222,11111222,11111222' 
TABS,ioos:station:wmo:42043:1,2009-03-03T03:00:00Z,28.9818,-94.9186,4.0,3.834070944,147.6780922,5.04,'11111222,11111222,11111222' 
TABS,ioos:station:wmo:42043:1,2009-03-03T03:30:00Z,28.9818,-94.9186,4.0,4.058891474,134.6010494,5.14,'11111222,11111222,11111222' 
TABS,ioos:station:wmo:42043:1,2009-03-03T04:00:00Z,28.9818,-94.9186,4.0,4.416786162,137.5695507,5.57,'11111222,11111222,11111222' 
TABS,ioos:station:wmo:42043:1,2009-03-03T04:30:00Z,28.9818,-94.9186,4.0,4.752820215,140.5497386,5.58,'11111222,11111222,11111222' 
TABS,ioos:station:wmo:42043:1,2009-03-03T05:00:00Z,28.9818,-94.9186,4.0,4.508181452,140.1296423,6.02,'11111222,11111222,11111222' 
TABS,ioos:station:wmo:42043:1,2009-03-03T05:30:00Z,28.9818,-94.9186,4.0,4.101438772,134.4076233,5.18,'11111222,11111222,11111222' 
TABS,ioos:station:wmo:42043:1,2009-03-03T06:00:00Z,28.9818,-94.9186,4.0,4.348712453,135.0934793,5.38,'11111222,11111222,11111222' 
TABS,ioos:station:wmo:42043:1,2009-03-03T06:30:00Z,28.9818,-94.9186,4.0,4.27800187,134.9056122,6.05,'11111222,11111222,11111222' 
TABS,ioos:station:wmo:42043:1,2009-03-03T07:00:00Z,28.9818,-94.9186,4.0,4.636733764,132.2906354,6.19,'11111222,11111222,11111222' 
TABS,ioos:station:wmo:42043:1,2009-03-03T07:30:00Z,28.9818,-94.9186,4.0,4.506939094,125.700577,5.87,'11111222,11111222,11111222' 
TABS,ioos:station:wmo:42043:1,2009-03-03T08:00:00Z,28.9818,-94.9186,4.0,5.042876163,125.8021707,6.54,'11111222,11111222,11111222' 
TABS,ioos:station:wmo:42043:1,2009-03-03T08:30:00Z,28.9818,-94.9186,4.0,4.641777677,118.9950119,6.46,'11111222,11111222,11111222' 
TABS,ioos:station:wmo:42043:1,2009-03-03T09:00:00Z,28.9818,-94.9186,4.0,4.779466497,124.6879115,6.6,'11111222,11111222,11111222' 
TABS,ioos:station:wmo:42043:1,2009-03-03T09:30:00Z,28.9818,-94.9186,4.0,5.762100312,113.8517964,7.11,'11111222,11111222,11111222' 
TABS,ioos:station:wmo:42043:1,2009-03-03T10:00:00Z,28.9818,-94.9186,4.0,6.147519825,108.1995434,7.87,'11111222,11111222,11111222' 
TABS,ioos:station:wmo:42043:1,2009-03-03T10:30:00Z,28.9818,-94.9186,4.0,6.098827756,106.0877279,7.69,'11111222,11111222,11111222' 
TABS,ioos:station:wmo:42043:1,2009-03-03T11:00:00Z,28.9818,-94.9186,4.0,6.419758562,110.32661,8.06,'11111222,11111222,11111222' 
TABS,ioos:station:wmo:42043:1,2009-03-03T11:30:00Z,28.9818,-94.9186,4.0,6.533123296,112.404355,7.66,'11111222,11111222,11111222' 
TABS,ioos:station:wmo:42043:1,2009-03-03T12:00:00Z,28.9818,-94.9186,4.0,6.504037208,110.8038694,7.64,'11111222,11111222,11111222' 
TABS,ioos:station:wmo:42043:1,2009-03-03T12:30:00Z,28.9818,-94.9186,4.0,6.468168211,113.3152697,8.06,'11111222,11111222,11111222' 
TABS,ioos:station:wmo:42043:1,2009-03-03T13:00:00Z,28.9818,-94.9186,4.0,6.659316782,112.3290251,8.6,'11111222,11111222,11111222' 
TABS,ioos:station:wmo:42043:1,2009-03-03T13:30:00Z,28.9818,-94.9186,4.0,6.879680225,110.595408,8.66,'11111222,11111222,11111222' 
TABS,ioos:station:wmo:42043:1,2009-03-03T14:00:00Z,28.9818,-94.9186,4.0,6.902535766,105.5467118,8.71,'11111222,11111222,11111222' 
TABS,ioos:station:wmo:42043:1,2009-03-03T14:30:00Z,28.9818,-94.9186,4.0,7.470937023,114.0952301,9.41,'11111222,11111222,11111222' 
TABS,ioos:station:wmo:42043:1,2009-03-03T15:00:00Z,28.9818,-94.9186,4.0,7.095667692,111.3219527,9.33,'11111222,11111222,11111222' 
TABS,ioos:station:wmo:42043:1,2009-03-03T15:30:00Z,28.9818,-94.9186,4.0,7.149265697,106.9145605,8.88,'11111222,11111222,11111222' 
TABS,ioos:station:wmo:42043:1,2009-03-03T16:00:00Z,28.9818,-94.9186,4.0,7.811081871,107.9714044,9.66,'11111222,11111222,11111222' 
TABS,ioos:station:wmo:42043:1,2009-03-03T16:30:00Z,28.9818,-94.9186,4.0,7.440981118,112.1878436,9.3,'11111222,11111222,11111222' 
TABS,ioos:station:wmo:42043:1,2009-03-03T17:00:00Z,28.9818,-94.9186,4.0,7.358294639,114.2316599,9.23,'11111222,11111222,11111222' 
TABS,ioos:station:wmo:42043:1,2009-03-03T17:30:00Z,28.9818,-94.9186,4.0,7.12023876,124.4715641,8.75,'11111222,11111222,11111222' 
TABS,ioos:station:wmo:42043:1,2009-03-03T18:00:00Z,28.9818,-94.9186,4.0,6.361131975,125.7893107,8.26,'11111222,11111222,11111222' 
TABS,ioos:station:wmo:42043:1,2009-03-03T18:30:00Z,28.9818,-94.9186,4.0,5.980802622,122.5744019,8.15,'11111222,11111222,11111222' 
TABS,ioos:station:wmo:42043:1,2009-03-03T19:00:00Z,28.9818,-94.9186,4.0,5.680088027,128.4238369,7.49,'11111222,11111222,11111222' 
TABS,ioos:station:wmo:42043:1,2009-03-03T19:30:00Z,28.9818,-94.9186,4.0,5.488506172,131.8245876,7.23,'11111222,11111222,11111222' 
TABS,ioos:station:wmo:42043:1,2009-03-03T20:00:00Z,28.9818,-94.9186,4.0,5.014828013,133.6267764,6.84,'11111222,11111222,11111222' 
TABS,ioos:station:wmo:42043:1,2009-03-03T20:30:00Z,28.9818,-94.9186,4.0,4.924469515,126.0790349,6.54,'11111222,11111222,11111222' 
TABS,ioos:station:wmo:42043:1,2009-03-03T21:00:00Z,28.9818,-94.9186,4.0,4.948019806,124.0436855,7.0,'11111222,11111222,11111222' 
TABS,ioos:station:wmo:42043:1,2009-03-03T21:30:00Z,28.9818,-94.9186,4.0,4.728826493,123.791223,6.44,'11111222,11111222,11111222' 
TABS,ioos:station:wmo:42043:1,2009-03-03T22:00:00Z,28.9818,-94.9186,4.0,5.245588623,124.750758,7.08,'11111222,11111222,11111222' 
TABS,ioos:station:wmo:42043:1,2009-03-03T22:30:00Z,28.9818,-94.9186,4.0,5.359440269,124.8171974,6.53,'11111222,11111222,11111222' 
TABS,ioos:station:wmo:42043:1,2009-03-03T23:00:00Z,28.9818,-94.9186,4.0,5.636488268,115.2014856,7.39,'11111222,11111222,11111222' 
TABS,ioos:station:wmo:42043:1,2009-03-03T23:30:00Z,28.9818,-94.9186,4.0,5.822722731,121.58851,7.55,'11111222,11111222,11111222' 
TABS,ioos:station:wmo:42043:1,2009-03-04T00:00:00Z,28.9818,-94.9186,4.0,6.134631203,121.3325092,8.33,'11111222,11111222,11111222' 
TABS,ioos:station:wmo:42043:1,2009-03-04T00:30:00Z,28.9818,-94.9186,4.0,6.560464923,124.7562522,8.76,'11111222,11111222,11111222' 
TABS,ioos:station:wmo:42043:1,2009-03-04T01:00:00Z,28.9818,-94.9186,4.0,6.38105007,130.8061427,8.18,'11111222,11111222,11111222' 
TABS,ioos:station:wmo:42043:1,2009-03-04T01:30:00Z,28.9818,-94.9186,4.0,5.67860018,134.2154929,7.24,'11111222,11111222,11111222' 
TABS,ioos:station:wmo:42043:1,2009-03-04T02:00:00Z,28.9818,-94.9186,4.0,6.212889827,139.4390217,8.55,'11111222,11111222,11111222' 
TABS,ioos:station:wmo:42043:1,2009-03-04T02:30:00Z,28.9818,-94.9186,4.0,5.934323887,142.5317808,7.89,'11111222,11111222,11111222' 
TABS,ioos:station:wmo:42043:1,2009-03-04T03:00:00Z,28.9818,-94.9186,4.0,5.933026209,151.6210337,7.49,'11111222,11111222,11111222' 
TABS,ioos:station:wmo:42043:1,2009-03-04T03:30:00Z,28.9818,-94.9186,4.0,5.856697021,149.1875248,7.99,'11111222,11111222,11111222' 
TABS,ioos:station:wmo:42043:1,2009-03-04T04:00:00Z,28.9818,-94.9186,4.0,5.704191441,148.6230953,7.36,'11111222,11111222,11111222' 
TABS,ioos:station:wmo:42043:1,2009-03-04T04:30:00Z,28.9818,-94.9186,4.0,6.495536929,154.8554836,8.09,'11111222,11111222,11111222' 
TABS,ioos:station:wmo:42043:1,2009-03-04T05:00:00Z,28.9818,-94.9186,4.0,6.821414809,156.5921242,8.18,'11111222,11111222,11111222' 
TABS,ioos:station:wmo:42043:1,2009-03-04T05:30:00Z,28.9818,-94.9186,4.0,6.440784114,157.2572263,8.12,'11111222,11111222,11111222' 
TABS,ioos:station:wmo:42043:1,2009-03-04T06:00:00Z,28.9818,-94.9186,4.0,6.84000731,161.5917937,8.56,'11111222,11111222,11111222' 
TABS,ioos:station:wmo:42043:1,2009-03-04T06:30:00Z,28.9818,-94.9186,4.0,7.058342582,161.9246813,8.88,'11111222,11111222,11111222' 
TABS,ioos:station:wmo:42043:1,2009-03-04T07:00:00Z,28.9818,-94.9186,4.0,7.706004153,163.7995253,9.34,'11111222,11111222,11111222' 
TABS,ioos:station:wmo:42043:1,2009-03-04T07:30:00Z,28.9818,-94.9186,4.0,6.283446506,161.5364695,8.17,'11111222,11111222,11111222' 
TABS,ioos:station:wmo:42043:1,2009-03-04T08:00:00Z,28.9818,-94.9186,4.0,6.548014966,163.862545,8.05,'11111222,11111222,11111222' 
TABS,ioos:station:wmo:42043:1,2009-03-04T08:30:00Z,28.9818,-94.9186,4.0,5.745928994,161.8491003,7.59,'11111222,11111222,11111222' 
TABS,ioos:station:wmo:42043:1,2009-03-04T09:00:00Z,28.9818,-94.9186,4.0,5.701903191,164.3309068,6.87,'11111222,11111222,11111222' 
TABS,ioos:station:wmo:42043:1,2009-03-04T09:30:00Z,28.9818,-94.9186,4.0,4.508491987,163.3740398,6.13,'11111222,11111222,11111222' 
TABS,ioos:station:wmo:42043:1,2009-03-04T10:00:00Z,28.9818,-94.9186,4.0,4.484751944,160.5956544,5.63,'11111222,11111222,11111222' 
TABS,ioos:station:wmo:42043:1,2009-03-04T10:30:00Z,28.9818,-94.9186,4.0,4.176338109,157.9186176,5.22,'11111222,11111222,11111222' 
TABS,ioos:station:wmo:42043:1,2009-03-04T11:00:00Z,28.9818,-94.9186,4.0,3.37295123,152.0676806,4.39,'11111222,11111222,11111222' 
TABS,ioos:station:wmo:42043:1,2009-03-04T11:30:00Z,28.9818,-94.9186,4.0,2.895185659,137.6600594,3.56,'11111222,11111222,11111222' 
TABS,ioos:station:wmo:42043:1,2009-03-04T12:00:00Z,28.9818,-94.9186,4.0,2.983035367,131.3307986,3.99,'11111222,11111222,11111222' 
TABS,ioos:station:wmo:42043:1,2009-03-04T12:30:00Z,28.9818,-94.9186,4.0,3.374048014,143.4360635,4.75,'11111222,11111222,11111222' 
TABS,ioos:station:wmo:42043:1,2009-03-04T13:00:00Z,28.9818,-94.9186,4.0,3.743541104,132.727013,4.55,'11111222,11111222,11111222' 
TABS,ioos:station:wmo:42043:1,2009-03-04T13:30:00Z,28.9818,-94.9186,4.0,2.851122586,136.8479216,3.46,'11111222,11111222,11111222' 
TABS,ioos:station:wmo:42043:1,2009-03-04T14:00:00Z,28.9818,-94.9186,4.0,3.767028006,128.2088142,4.62,'11111222,11111222,11111222' 
TABS,ioos:station:wmo:42043:1,2009-03-04T14:30:00Z,28.9818,-94.9186,4.0,3.766297917,121.5380859,4.62,'11111222,11111222,11111222' 
TABS,ioos:station:wmo:42043:1,2009-03-04T15:00:00Z,28.9818,-94.9186,4.0,2.909518861,128.7216478,3.46,'11111222,11111222,11111222' 
TABS,ioos:station:wmo:42043:1,2009-03-04T15:30:00Z,28.9818,-94.9186,4.0,3.322664593,138.5386119,4.29,'11111222,11111222,11111222' 
TABS,ioos:station:wmo:42043:1,2009-03-04T16:00:00Z,28.9818,-94.9186,4.0,3.267598507,133.7603438,3.94,'11111222,11111222,11111222' 
TABS,ioos:station:wmo:42043:1,2009-03-04T16:30:00Z,28.9818,-94.9186,4.0,3.758257575,137.4804977,4.5,'11111222,11111222,11111222' 
TABS,ioos:station:wmo:42043:1,2009-03-04T17:00:00Z,28.9818,-94.9186,4.0,3.310740099,133.2868544,3.97,'11111222,11111222,11111222' 
TABS,ioos:station:wmo:42043:1,2009-03-04T17:30:00Z,28.9818,-94.9186,4.0,3.118012187,124.8117115,3.63,'11111222,11111222,11111222' 
TABS,ioos:station:wmo:42043:1,2009-03-04T18:00:00Z,28.9818,-94.9186,4.0,3.237607141,125.0648487,3.87,'11111222,11111222,11111222' 
TABS,ioos:station:wmo:42043:1,2009-03-04T18:30:00Z,28.9818,-94.9186,4.0,3.672288115,127.5879507,4.2,'11111222,11111222,11111222' 